Temperature
19 20 21 21 21 21 22 24 25 24 24 24 24 24 23 22 21 19 19 18 18 18 18 17 17 16 15 14 13 12 12 12 12 11 11 11 10 10 10 10 10 10 10 10 10 11 11 11 12
19 20 20 22 21 21 23 24 24 24 24 24 24 24 24 23 22 20 19 18 18 18 18 17 17 16 15 14 13 13 12 12 12 11 11 10 10 10 10 10 10 10 10 10 10 11 11 12 12
19 20 21 21 21 22 23 24 24 24 24 24 24 24 24 23 22 20 20 19 18 18 18 17 17 16 15 14 14 13 12 12 11 11 11 10 10 10 10 10 10 10 10 10 10 11 11 12 12
19 20 22 22 22 24 24 24 24 24 24 23 24 24 23 22 21 21 20 19 18 18 17 17 16 16 15 14 14 13 12 12 11 11 11 10 10 10 10 10 10 10 10 10 11 11 11 12 12
19 21 21 21 23 25 25 24 24 24 24 24 24 24 22 21 21 21 20 19 18 18 17 17 16 16 15 14 13 13 12 12 11 11 10 10 10 11 11 11 11 11 11 11 11 11 11 12 12
21 22 21 21 23 25 25 24 24 24 24 24 23 24 20 20 20 20 20 19 18 17 17 17 16 15 15 14 13 13 12 12 11 11 10 10 10 11 11 11 11 11 11 11 11 11 12 12 12
21 21 21 23 24 24 25 24 24 24 24 24 23 23 20 19 20 20 19 18 18 17 16 17 16 15 14 13 13 12 12 11 11 11 10 10 10 11 11 11 11 11 11 11 11 11 11 12 12
21 21 22 23 23 24 24 23 23 23 23 23 23 23 20 19 19 19 19 18 17 16 16 16 16 15 14 13 12 12 12 11 11 11 10 10 10 10 10 11 11 11 11 11 11 11 11 11 11
21 20 21 23 23 23 24 23 23 23 22 23 23 22 21 20 19 19 18 17 16 16 15 15 15 14 14 13 12 12 11 11 11 10 10 10 10 10 10 10 11 11 11 11 11 11 11 11 11
22 19 21 23 23 23 23 23 23 23 22 23 22 21 20 20 19 18 17 17 16 16 15 14 14 14 13 12 12 11 11 11 10 10 10 10 10 9 9 10 10 10 10 11 11 11 11 11 11
22 21 22 23 23 22 22 22 22 22 21 21 20 20 19 19 18 18 17 17 17 16 15 14 14 13 13 12 11 11 11 10 10 10 10 10 9 9 9 9 9 10 10 10 10 10 10 10 10
22 22 23 22 21 21 21 21 21 21 21 20 20 19 19 18 18 18 17 17 17 16 16 15 14 13 12 12 11 11 11 10 10 10 10 9 9 9 9 9 9 9 9 9 9 9 9 9 9
21 21 22 22 21 20 20 20 20 20 20 20 19 18 18 18 18 18 17 17 17 16 16 15 14 13 13 12 11 11 11 10 10 10 9 9 9 9 9 9 8 8 8 8 8 8 8 8 8
21 21 21 21 21 21 20 20 20 20 19 19 18 18 17 17 17 17 17 17 16 16 15 15 14 13 13 12 11 11 10 10 10 10 9 9 9 9 8 8 8 8 8 8 8 8 8 7 7
20 19 19 21 21 21 20 18 19 20 19 19 19 18 17 16 16 16 16 16 16 15 15 14 14 13 13 12 11 11 10 10 10 9 9 9 9 8 8 8 8 8 8 7 7 7 7 7 8
20 19 19 21 21 20 18 18 20 19 19 19 19 18 16 15 15 15 15 15 15 15 15 14 14 13 12 12 11 11 10 10 10 9 9 9 8 8 8 8 8 8 7 7 7 7 7 8 8
19 19 20 20 20 20 19 19 19 19 19 19 19 18 16 15 14 14 15 15 15 15 15 14 14 13 12 12 11 10 10 10 9 9 9 9 8 8 8 8 8 8 8 7 7 7 7 7 7
20 20 21 21 20 20 19 19 19 19 19 19 19 18 16 15 14 14 14 15 15 15 14 14 14 13 12 12 11 10 10 10 9 9 9 9 8 8 8 8 8 8 8 8 7 7 7 7 7
19 19 19 20 20 19 18 18 19 19 19 19 19 17 16 14 13 14 14 14 15 14 14 14 14 13 12 12 11 10 10 10 10 10 10 9 9 9 8 8 8 8 8 8 7 7 7 7 6
19 18 18 20 19 19 18 18 19 19 18 19 18 17 15 14 13 13 13 14 14 14 14 14 13 13 12 12 11 11 10 10 10 10 10 9 9 9 9 9 8 8 8 8 7 7 6 6 6
18 17 18 19 19 18 17 17 18 18 18 18 18 17 15 14 13 13 13 13 14 14 14 14 13 13 12 12 12 11 10 10 10 9 9 9 9 9 8 8 8 8 7 7 7 6 6 6 6
17 19 19 18 17 17 18 16 18 16 16 16 17 16 15 14 13 13 13 13 13 13 13 13 13 12 12 12 11 11 10 9 9 9 8 8 8 8 8 8 7 7 7 7 6 6 6 5 5
18 18 18 18 17 16 17 17 17 16 15 15 15 16 15 14 13 13 12 13 13 13 13 13 12 12 12 11 11 10 10 9 9 8 8 7 7 7 7 7 7 7 7 6 6 6 6 5 5
18 17 17 16 16 15 17 17 17 16 16 15 15 16 15 14 13 12 12 12 13 12 12 12 12 12 11 11 11 10 10 9 8 8 7 7 7 7 6 6 6 6 6 6 6 6 5 5 5
17 16 15 15 14 15 19 18 18 19 18 17 16 16 15 14 13 12 12 12 12 12 12 12 11 11 11 10 10 10 9 8 8 7 7 7 7 6 6 6 6 6 6 6 5 5 5 5 4
15 16 16 16 17 18 17 17 18 17 18 19 17 16 15 14 13 12 12 12 12 12 11 11 11 11 10 10 9 9 8 8 7 7 7 7 6 6 6 6 6 6 6 5 5 5 4 4 3
17 16 18 16 17 17 17 19 16 17 17 17 17 16 15 14 13 12 11 11 11 11 11 11 10 10 10 9 9 8 8 7 7 7 7 6 6 6 6 6 6 6 5 5 5 4 4 3 3
16 17 16 15 15 15 18 19 17 15 15 16 16 16 15 14 13 12 11 11 11 11 10 10 10 10 9 9 8 8 7 7 7 7 6 6 6 6 6 5 5 5 5 5 4 4 3 2 2
15 16 16 16 17 16 16 17 18 17 16 15 16 17 15 14 13 12 11 11 10 10 10 10 10 9 9 8 8 7 7 7 6 6 6 5 5 5 5 5 5 5 4 4 3 3 2 2 1
16 16 16 15 16 16 15 16 17 17 17 17 17 17 16 15 14 12 11 10 10 10 10 9 9 9 8 8 7 7 6 6 6 6 5 5 5 5 5 4 4 4 3 3 2 2 1 1 0
Wind_Speed
12 14 8 3 3 5 4 3 3 5 4 8 6 4 4 10 7 6 5 8 12 16 22 21 20 18 16 14 13 12 11 10 10 10 10 10 11 11 11 12 12 12 12 13 13 13 13 14 14
12 9 5 4 4 5 2 4 5 7 7 4 2 2 2 9 9 10 6 7 12 18 22 20 21 19 17 15 14 12 11 10 10 10 9 9 10 10 10 10 11 11 11 12 12 12 12 12 12
9 9 4 4 5 5 2 6 6 7 5 0 1 2 3 6 8 6 8 9 12 16 21 21 22 19 18 16 14 13 12 11 10 9 9 9 9 9 9 9 9 10 10 10 11 11 11 11 11
6 4 5 6 8 4 2 7 7 1 4 2 4 2 6 7 5 8 10 9 12 13 20 23 22 20 18 16 15 14 12 11 10 9 8 8 8 8 8 8 8 8 8 8 9 9 9 9 9
4 4 6 7 8 2 4 7 5 5 2 4 1 4 6 5 11 12 10 10 12 11 19 23 22 20 18 17 15 14 12 11 10 9 8 8 8 7 7 6 6 6 6 6 7 7 7 7 7
4 4 5 7 6 4 4 5 2 6 2 3 2 4 7 7 9 10 10 9 9 10 18 23 22 20 18 17 16 14 13 11 10 9 8 8 7 6 6 5 4 4 4 4 5 5 5 5 6
5 5 7 7 1 3 2 5 2 5 5 2 2 4 7 7 7 7 9 8 9 12 15 20 20 19 18 17 16 15 13 12 11 9 8 8 7 6 5 5 4 3 2 2 2 2 3 3 3
4 5 8 5 2 1 4 5 1 5 6 5 3 4 7 5 6 6 7 6 8 9 10 17 19 18 17 16 16 15 14 12 11 10 9 8 7 7 6 7 6 4 3 2 2 2 3 3 3
4 4 6 4 2 2 4 3 2 1 4 5 3 2 8 9 7 7 6 4 5 8 8 13 16 17 17 17 16 16 14 13 12 11 10 9 9 11 11 10 9 7 5 5 5 5 6 6 7
3 4 8 6 6 5 6 3 4 3 6 6 2 6 9 8 7 8 8 9 9 9 8 7 11 15 17 15 16 16 14 14 13 12 13 11 11 9 9 11 11 9 8 8 9 9 9 10 12
6 7 8 7 7 7 7 7 6 6 7 4 5 4 4 4 5 7 8 9 10 10 9 8 7 14 14 12 14 13 13 14 15 14 14 14 12 7 7 10 10 11 10 11 12 12 12 14 13
6 8 7 5 5 3 6 7 7 7 5 3 4 4 3 2 4 6 6 6 9 11 10 8 7 9 12 12 11 12 11 11 12 14 13 12 9 6 6 6 9 12 13 14 12 11 12 14 13
7 9 8 4 2 4 7 8 8 8 2 3 3 1 3 3 3 2 3 3 7 10 10 9 7 7 8 8 8 9 9 11 12 12 12 10 7 6 7 7 8 8 8 8 9 9 10 10 10
6 7 8 7 7 7 7 9 7 4 4 2 2 1 3 4 4 2 2 2 5 9 10 9 8 7 8 5 5 6 7 9 10 11 12 11 9 7 7 6 7 7 8 8 7 8 8 7 8
5 7 10 11 10 3 1 8 9 6 5 5 5 6 5 4 4 3 3 1 4 8 8 8 8 7 7 6 6 6 7 8 7 8 11 11 11 9 8 6 5 7 9 9 8 8 7 5 6
7 6 6 4 7 6 3 7 5 9 6 4 4 7 7 6 5 5 4 3 4 7 8 8 6 6 7 5 6 5 6 6 6 7 8 10 11 11 8 5 5 8 9 7 4 3 4 5 6
7 7 10 5 8 7 7 6 5 7 6 6 6 7 8 7 7 6 6 5 6 8 9 8 7 4 5 5 5 3 2 2 2 3 5 6 7 8 8 6 6 8 7 5 3 4 4 5 6
5 6 7 2 7 6 7 8 6 8 8 7 6 8 9 8 7 7 8 8 8 9 9 9 7 5 6 4 3 3 2 1 0 2 3 4 5 7 7 6 6 7 4 4 4 5 5 5 6
8 9 11 7 4 3 8 11 8 7 7 7 7 9 10 9 8 8 8 9 9 9 9 8 7 6 5 3 3 3 2 1 1 1 2 3 4 5 4 3 4 4 4 5 5 4 5 5 4
7 9 11 8 3 2 7 11 8 7 9 8 9 10 11 10 8 8 8 8 8 8 8 8 8 7 6 4 3 3 2 1 1 1 0 2 3 3 3 3 3 4 4 5 5 5 4 4 3
9 10 10 8 4 5 6 9 10 7 6 5 7 11 11 11 10 9 9 9 8 8 7 8 8 7 7 6 4 3 2 0 0 0 0 1 1 2 2 3 4 4 3 4 6 5 6 5 4
8 5 5 5 5 5 6 5 5 10 8 8 8 10 11 11 10 10 9 9 8 7 7 8 8 8 6 5 4 3 2 2 1 1 1 1 2 2 1 3 4 4 3 5 6 5 5 5 5
2 3 3 5 6 7 7 7 6 12 10 12 11 10 11 11 10 10 10 9 8 7 7 7 8 7 6 5 4 3 4 2 2 2 2 2 1 2 3 3 3 4 4 5 6 6 6 5 6
3 1 5 5 4 6 9 9 5 10 13 15 13 12 12 11 11 10 9 10 8 6 6 7 8 7 5 5 5 5 4 3 3 3 3 3 3 1 1 2 3 5 5 5 6 6 7 7 8
3 4 4 5 5 7 3 4 6 5 10 15 16 14 13 12 11 11 10 9 9 8 6 6 7 6 5 5 4 4 3 2 2 3 3 3 3 3 3 2 3 4 6 7 6 6 8 8 9
8 6 5 4 3 0 2 6 2 6 5 10 16 15 14 12 11 11 11 10 9 9 7 6 7 6 5 4 3 3 3 2 2 2 3 3 3 3 3 5 6 7 8 8 6 6 8 8 9
6 8 4 4 7 5 6 5 4 3 3 4 13 15 14 13 12 11 11 10 10 9 7 7 7 6 5 4 3 4 3 2 2 3 3 3 4 4 5 6 6 7 8 7 7 7 8 8 8
4 3 3 4 4 5 7 7 5 7 7 6 10 13 13 13 12 11 10 10 9 8 7 7 7 6 4 3 3 1 2 2 3 4 5 5 5 4 6 7 7 8 7 7 8 8 8 9 9
7 4 4 4 4 2 4 2 4 6 10 10 10 11 13 13 12 11 10 9 9 8 7 6 6 5 4 2 2 1 2 2 3 4 5 5 5 6 7 8 8 9 9 9 9 9 9 10 10
7 8 8 4 5 4 3 4 3 7 6 7 8 9 11 12 11 11 10 10 9 8 7 7 6 5 3 2 1 2 2 3 4 5 6 6 7 7 7 8 9 9 10 9 9 10 10 10 11
Wind_Direction
282 261 251 256 251 243 242 97 73 70 71 64 54 349 14 60 41 90 149 143 127 138 149 160 159 158 155 150 143 137 130 122 113 106 98 93 88 83 78 74 71 68 65 64 63 61 60 61 61
283 260 247 245 251 256 190 113 89 67 63 65 136 275 63 85 89 114 135 132 132 142 150 161 161 160 158 153 149 145 138 131 123 115 108 102 96 89 84 78 73 70 66 64 64 64 62 61 61
269 262 239 231 246 267 84 93 73 85 97 282 229 136 47 77 86 102 135 144 136 143 153 160 162 163 161 157 155 151 144 138 131 123 117 110 103 95 88 81 76 72 68 65 63 63 62 60 59
244 225 240 243 243 226 48 89 64 40 137 167 302 242 109 67 75 110 135 149 140 145 152 157 163 165 164 161 159 156 152 147 141 134 128 120 113 104 96 87 81 75 70 65 62 60 59 58 56
244 235 230 245 257 119 81 66 59 291 184 144 294 314 85 81 101 118 142 153 146 149 150 157 165 168 167 165 164 162 159 156 152 147 142 134 126 118 110 103 93 83 74 66 61 57 54 52 50
237 243 234 234 224 143 126 117 166 269 296 121 176 287 97 110 104 121 138 159 149 146 147 156 167 170 170 170 169 167 166 165 162 159 156 150 143 136 132 126 114 97 82 68 58 51 47 42 39
254 258 265 270 256 129 129 82 336 319 319 7 58 323 103 86 95 124 141 165 145 146 145 153 168 172 174 175 174 173 173 173 172 170 168 164 162 162 161 157 152 143 123 90 50 31 22 15 11
302 278 265 277 291 305 97 89 356 318 318 30 32 321 97 124 128 128 135 149 140 142 147 154 166 172 175 177 179 177 178 180 181 179 176 175 179 188 191 188 185 185 194 215 245 277 291 298 296
291 287 281 290 333 336 87 121 242 170 279 281 230 88 123 129 133 132 133 143 148 152 157 157 166 171 175 178 182 181 183 186 185 183 178 180 198 204 204 204 192 200 217 234 245 255 264 268 266
244 276 282 326 2 356 9 2 321 305 278 278 282 94 118 137 157 168 175 178 175 174 175 168 165 167 173 179 175 180 185 189 191 193 187 195 220 221 192 184 187 207 226 241 250 253 260 261 255
240 253 284 324 11 10 345 322 304 283 280 322 10 51 130 161 184 200 206 190 178 174 174 177 166 164 168 170 166 177 186 187 196 205 196 199 216 207 171 172 189 209 223 235 243 238 242 243 242
269 287 296 320 40 12 303 299 302 292 292 39 40 14 343 244 207 206 220 208 165 162 168 175 164 157 164 166 169 173 181 183 190 205 207 197 198 198 211 213 202 207 211 218 226 224 240 242 239
260 271 288 306 293 251 270 277 277 269 291 48 44 354 310 314 297 209 204 190 146 152 161 170 162 155 160 162 172 178 181 181 189 197 208 204 185 191 215 230 233 230 230 222 220 233 251 257 251
321 325 303 275 250 241 248 264 252 233 125 154 176 119 47 18 353 4 115 173 152 146 154 161 165 161 158 161 170 179 190 183 189 189 198 211 208 206 214 230 237 236 242 251 247 247 255 261 262
312 287 275 245 221 192 241 262 224 168 157 200 173 126 96 56 36 33 70 127 147 141 143 150 162 162 158 167 182 184 192 187 188 193 198 209 217 223 225 230 241 245 247 248 252 261 274 275 271
238 248 256 202 160 132 184 271 141 136 181 199 151 122 110 88 69 56 65 84 110 120 126 127 135 155 157 158 174 185 193 189 182 198 208 214 220 226 236 239 245 256 259 255 247 244 268 273 268
228 243 247 173 174 165 207 265 149 162 190 199 174 135 118 99 80 70 70 82 96 107 110 112 117 139 140 138 146 158 157 138 156 211 226 224 230 234 240 244 251 262 263 255 246 246 247 268 278
294 295 293 228 164 189 233 261 215 185 197 204 166 132 114 99 86 79 74 71 77 90 101 109 115 118 114 111 122 110 87 56 175 239 255 247 246 247 248 254 266 273 271 266 256 256 258 255 260
317 315 309 313 119 188 251 262 245 184 187 200 170 138 120 113 108 99 92 86 84 87 98 107 112 108 105 106 114 117 136 177 199 231 273 282 266 261 254 253 269 277 274 269 264 265 275 279 279
298 285 283 288 132 183 270 270 248 188 189 189 166 141 132 130 120 113 107 102 100 100 103 106 108 106 99 96 93 90 94 82 80 47 7 307 298 281 260 247 252 258 264 273 273 267 269 274 268
257 255 268 296 331 239 257 279 230 173 164 158 154 141 140 142 137 126 112 103 98 99 104 106 104 100 98 101 97 88 84 52 84 151 153 263 289 316 295 275 269 271 262 262 262 257 257 266 267
264 284 279 300 305 282 206 276 217 165 169 178 171 150 143 139 134 130 123 112 104 100 100 103 105 104 105 107 101 111 101 91 99 103 178 245 199 185 281 296 293 285 276 272 267 255 247 248 261
250 27 323 281 271 280 256 249 258 155 182 189 183 167 149 143 139 133 127 124 115 108 107 109 106 104 103 98 90 70 61 48 45 21 13 346 293 180 206 234 269 278 271 269 271 275 265 251 248
95 243 253 250 252 260 235 217 254 182 195 183 180 170 154 147 141 135 129 125 121 120 118 118 113 110 107 100 96 82 64 27 22 12 6 346 329 311 270 236 264 271 267 262 262 262 263 258 257
190 224 246 215 214 240 211 201 260 168 177 176 175 168 158 153 150 149 149 145 142 140 136 130 124 120 112 100 90 95 83 28 26 22 353 337 327 326 323 332 294 283 276 272 265 261 260 258 258
194 223 246 277 265 70 179 230 234 65 60 159 162 160 158 160 161 161 161 153 149 149 148 136 123 114 102 92 77 74 78 60 28 3 331 314 306 301 307 309 293 287 284 281 273 269 263 260 257
197 213 262 313 303 286 253 202 110 78 48 123 155 160 166 168 165 164 160 153 151 153 151 137 127 116 102 88 72 51 35 40 8 330 311 303 297 292 299 296 287 285 285 281 278 271 269 267 263
292 301 180 205 244 264 265 237 191 174 188 190 173 170 170 167 164 162 159 154 151 148 136 124 120 117 108 86 80 56 359 16 343 314 303 297 298 298 299 294 290 288 284 281 282 279 276 276 273
188 225 235 245 269 269 293 333 35 148 173 185 195 181 173 170 166 162 159 152 143 138 138 134 128 123 117 94 65 15 351 339 315 299 293 295 294 294 292 290 290 289 286 284 283 281 284 285 285
197 205 204 220 241 218 242 275 63 80 117 159 185 184 173 166 161 157 153 146 145 149 150 144 141 135 130 112 43 327 314 302 296 294 298 302 300 296 292 290 288 286 286 285 285 286 288 286 288
Height
1531 1534 1536 1538 1539 1539 1535 1528 1525 1529 1530 1534 1536 1536 1536 1538 1542 1551 1549 1548 1547 1547 1548 1550 1552 1553 1554 1556 1557 1558 1559 1560 1560 1561 1561 1561 1561 1561 1561 1561 1561 1560 1560 1560 1559 1559 1559 1559 1558
1530 1534 1538 1538 1539 1543 1534 1526 1527 1530 1533 1535 1536 1536 1535 1538 1542 1545 1546 1547 1547 1547 1548 1550 1552 1553 1554 1556 1557 1558 1559 1560 1561 1561 1562 1562 1562 1562 1562 1562 1561 1561 1561 1560 1560 1560 1559 1559 1559
1530 1534 1538 1536 1537 1538 1532 1526 1527 1530 1533 1535 1535 1535 1536 1540 1542 1544 1545 1546 1547 1547 1548 1550 1551 1553 1554 1556 1557 1558 1559 1560 1561 1562 1562 1562 1563 1563 1563 1562 1562 1562 1561 1561 1561 1561 1560 1560 1560
1532 1536 1536 1535 1533 1526 1524 1525 1528 1531 1533 1535 1535 1534 1536 1539 1541 1543 1544 1545 1546 1547 1547 1549 1551 1553 1554 1556 1557 1559 1560 1561 1561 1562 1562 1563 1563 1563 1563 1563 1563 1562 1562 1562 1562 1562 1561 1561 1561
1533 1534 1534 1535 1528 1522 1523 1526 1531 1531 1531 1533 1535 1534 1536 1539 1540 1542 1543 1545 1546 1546 1547 1549 1551 1552 1554 1556 1557 1559 1560 1561 1562 1562 1563 1563 1564 1564 1564 1564 1563 1563 1563 1563 1563 1563 1562 1562 1562
1534 1531 1535 1535 1526 1521 1524 1527 1531 1531 1531 1532 1534 1534 1538 1539 1539 1541 1543 1544 1545 1546 1546 1548 1550 1552 1553 1555 1557 1558 1559 1561 1562 1562 1563 1564 1564 1564 1564 1564 1564 1564 1564 1564 1564 1563 1563 1563 1563
1533 1531 1532 1526 1524 1523 1524 1527 1531 1531 1531 1532 1533 1535 1538 1539 1539 1540 1542 1543 1545 1545 1545 1546 1549 1551 1552 1554 1556 1558 1559 1560 1561 1562 1563 1564 1564 1564 1564 1565 1565 1565 1564 1564 1564 1564 1564 1563 1563
1531 1530 1528 1526 1525 1525 1524 1528 1532 1533 1533 1533 1534 1535 1537 1539 1539 1540 1541 1542 1544 1544 1545 1545 1547 1549 1551 1553 1555 1557 1559 1560 1561 1562 1563 1563 1564 1564 1564 1564 1565 1565 1565 1565 1564 1564 1564 1563 1563
1532 1534 1533 1526 1525 1525 1525 1528 1531 1532 1533 1533 1534 1535 1536 1537 1537 1538 1539 1540 1542 1543 1544 1545 1546 1548 1550 1552 1554 1556 1558 1559 1560 1561 1562 1563 1563 1563 1564 1564 1564 1564 1564 1564 1564 1564 1563 1563 1562
1532 1536 1530 1523 1523 1525 1526 1528 1530 1531 1532 1532 1532 1533 1533 1535 1535 1536 1537 1538 1539 1541 1542 1544 1545 1546 1548 1551 1552 1554 1556 1557 1559 1560 1561 1562 1562 1563 1563 1563 1564 1564 1564 1563 1563 1563 1562 1562 1561
1529 1530 1526 1525 1525 1527 1528 1530 1530 1531 1531 1532 1532 1532 1532 1533 1533 1534 1535 1536 1537 1538 1540 1543 1545 1546 1547 1549 1551 1553 1554 1556 1557 1559 1560 1560 1561 1562 1563 1563 1563 1563 1562 1562 1561 1561 1560 1560 1559
1528 1526 1525 1526 1527 1528 1530 1530 1530 1529 1530 1530 1530 1530 1531 1531 1531 1532 1533 1535 1535 1536 1538 1540 1543 1545 1546 1548 1550 1551 1553 1554 1556 1557 1558 1559 1560 1561 1561 1561 1561 1560 1560 1559 1559 1558 1558 1557 1557
1527 1526 1525 1525 1527 1528 1529 1529 1529 1527 1527 1527 1528 1528 1529 1529 1529 1529 1530 1532 1533 1534 1536 1538 1541 1543 1545 1547 1548 1550 1552 1553 1554 1555 1557 1558 1558 1558 1559 1559 1559 1559 1559 1558 1557 1556 1556 1555 1555
1525 1525 1524 1524 1524 1525 1526 1526 1526 1524 1524 1526 1527 1527 1527 1526 1526 1527 1527 1529 1531 1532 1534 1536 1538 1541 1543 1545 1547 1549 1550 1552 1553 1553 1554 1555 1556 1556 1556 1557 1557 1557 1556 1556 1555 1554 1553 1552 1551
1526 1526 1523 1519 1520 1522 1525 1524 1520 1521 1523 1524 1525 1525 1525 1525 1524 1524 1525 1527 1529 1530 1532 1534 1536 1538 1540 1543 1545 1547 1548 1550 1551 1552 1552 1553 1553 1554 1554 1554 1554 1554 1553 1552 1552 1550 1549 1548 1547
1525 1526 1526 1514 1517 1520 1527 1527 1516 1518 1521 1523 1524 1524 1524 1524 1523 1523 1523 1525 1527 1529 1530 1532 1534 1536 1539 1541 1543 1545 1547 1548 1549 1549 1550 1550 1551 1551 1551 1551 1550 1550 1550 1549 1548 1546 1545 1544 1542
1524 1527 1521 1516 1514 1517 1522 1522 1518 1518 1519 1521 1522 1523 1524 1524 1524 1523 1523 1524 1526 1527 1529 1530 1532 1535 1537 1539 1541 1543 1544 1545 1546 1547 1547 1548 1548 1548 1547 1547 1547 1547 1546 1545 1544 1542 1541 1539 1537
1524 1521 1515 1514 1514 1515 1519 1518 1515 1515 1517 1518 1520 1521 1523 1524 1524 1523 1523 1524 1525 1526 1528 1529 1531 1534 1535 1537 1539 1541 1542 1543 1543 1544 1544 1544 1544 1544 1544 1543 1543 1542 1541 1541 1540 1538 1537 1535 1532
1520 1522 1522 1515 1513 1515 1517 1515 1511 1511 1513 1515 1517 1519 1521 1523 1524 1524 1523 1524 1525 1526 1527 1529 1531 1533 1534 1536 1538 1539 1540 1541 1541 1541 1541 1541 1541 1541 1540 1539 1539 1538 1538 1537 1536 1534 1532 1531 1529
1522 1525 1523 1515 1511 1514 1515 1512 1506 1506 1509 1512 1514 1517 1520 1523 1524 1524 1524 1525 1525 1527 1528 1530 1531 1533 1534 1536 1537 1538 1539 1539 1540 1540 1540 1539 1539 1538 1537 1537 1536 1535 1534 1533 1532 1530 1528 1527 1526
1523 1524 1521 1518 1513 1512 1516 1514 1504 1503 1506 1509 1512 1515 1519 1521 1523 1524 1525 1525 1526 1527 1529 1530 1532 1533 1535 1536 1537 1538 1539 1539 1539 1539 1538 1538 1537 1536 1535 1534 1533 1532 1531 1530 1528 1527 1525 1523 1522
1523 1515 1515 1517 1522 1521 1516 1524 1503 1502 1506 1508 1511 1514 1517 1520 1522 1524 1524 1525 1527 1528 1530 1531 1533 1534 1535 1536 1537 1538 1538 1538 1538 1538 1537 1536 1535 1534 1533 1532 1530 1529 1528 1526 1525 1523 1521 1519 1517
1516 1516 1516 1518 1522 1525 1515 1520 1505 1501 1506 1507 1509 1512 1515 1519 1521 1523 1524 1525 1527 1528 1530 1531 1533 1534 1535 1536 1537 1537 1537 1537 1536 1536 1535 1534 1533 1531 1530 1529 1527 1526 1524 1523 1521 1519 1517 1515 1512
1515 1517 1518 1519 1524 1531 1510 1514 1506 1499 1497 1500 1505 1509 1513 1516 1519 1522 1523 1525 1527 1528 1530 1531 1533 1534 1534 1535 1535 1535 1535 1535 1534 1533 1532 1531 1530 1529 1528 1526 1524 1522 1520 1518 1516 1514 1512 1509 1507
1517 1524 1530 1532 1535 1525 1497 1502 1497 1483 1484 1490 1498 1504 1510 1514 1517 1519 1521 1523 1525 1527 1529 1530 1532 1533 1533 1533 1533 1533 1533 1532 1531 1530 1529 1528 1527 1526 1524 1523 1521 1518 1516 1514 1511 1508 1506 1503 1500
1516 1518 1527 1527 1520 1509 1506 1505 1491 1484 1483 1486 1493 1500 1506 1511 1515 1517 1520 1522 1524 1526 1528 1529 1530 1531 1531 1531 1531 1531 1530 1529 1529 1528 1526 1525 1524 1522 1521 1519 1516 1514 1511 1508 1505 1502 1499 1496 1493
1510 1514 1508 1517 1513 1514 1504 1490 1493 1486 1487 1488 1492 1498 1503 1508 1512 1515 1518 1520 1522 1524 1526 1527 1528 1529 1529 1529 1529 1528 1527 1527 1526 1525 1523 1522 1520 1518 1516 1514 1511 1508 1505 1502 1499 1495 1492 1489 1486
1507 1505 1511 1518 1523 1522 1501 1491 1492 1493 1490 1490 1492 1495 1500 1505 1509 1513 1515 1518 1520 1522 1523 1525 1526 1526 1527 1527 1526 1526 1525 1524 1522 1521 1520 1518 1516 1514 1511 1509 1506 1503 1499 1496 1492 1488 1485 1481 1477
1508 1508 1507 1508 1506 1517 1514 1500 1484 1483 1485 1488 1490 1493 1497 1501 1505 1509 1513 1515 1517 1519 1521 1522 1523 1524 1524 1524 1523 1522 1521 1520 1519 1517 1516 1514 1511 1509 1506 1503 1500 1496 1493 1489 1485 1481 1477 1473 1469
1497 1500 1503 1512 1508 1505 1513 1505 1483 1482 1482 1485 1488 1491 1495 1498 1502 1506 1510 1512 1514 1516 1518 1519 1520 1520 1521 1520 1520 1519 1518 1517 1515 1514 1512 1509 1507 1504 1501 1497 1493 1489 1485 1481 1477 1472 1468 1464 1459